FW6396 Weather Reports


time (UTC)temp
C
wind
direction
speed
KPH
gust
KPH
rain 1hr
cm
rain 24hr
cm
rain mn
cm
humidity
%
barometer
mb
20260507110050 13 0 0.0 1.6 0.00 0.00 0.00 61 1011.0
20260507104554 13 0 0.0 0.0 0.00 0.00 0.00 61 1011.2
20260507103053 13 0 0.0 0.0 0.00 0.00 0.00 61 1011.2
20260507101550 13 0 0.0 0.0 0.00 0.00 0.00 60 1011.2
20260507100057 13 0 0.0 0.0 0.00 0.00 0.00 59 1011.1
20260507094550 13 0 0.0 0.0 0.00 0.00 0.00 60 1011.3
20260507093052 12 0 0.0 6.4 0.00 0.00 0.00 62 1011.3
20260507091554 11 0 0.0 0.0 0.00 0.00 0.00 64 1011.4
20260507090054 11 0 0.0 1.6 0.00 0.00 0.00 64 1011.4
20260507084558 11 0 0.0 0.0 0.00 0.00 0.00 65 1011.6
20260507083054 10 0 0.0 1.6 0.00 0.00 0.00 66 1011.6
20260507081554 10 0 0.0 0.0 0.00 0.00 0.00 67 1011.6
20260507080117 10 0 0.0 0.0 0.00 0.00 0.00 68 1011.6
20260507074555 10 0 0.0 0.0 0.00 0.00 0.00 68 1011.9
20260507073052 10 0 0.0 0.0 0.00 0.00 0.00 68 1011.9
20260507071550 9 0 0.0 0.0 0.00 0.00 0.00 69 1011.8
20260507070048 9 0 0.0 0.0 0.00 0.00 0.00 68 1011.8
20260507064552 8 0 0.0 0.0 0.00 0.00 0.00 70 1011.7
20260507063057 8 0 0.0 0.0 0.00 0.00 0.00 72 1012.0
20260507061546 8 0 0.0 0.0 0.00 0.00 0.00 70 1011.9
20260507060051 8 0 0.0 1.6 0.00 0.00 0.00 71 1012.1
20260507054552 8 0 0.0 0.0 0.00 0.00 0.00 71 1012.0
20260507053053 7 0 0.0 0.0 0.00 0.00 0.00 71 1012.0
20260507051552 7 0 0.0 1.6 0.00 0.00 0.00 71 1012.0
20260507050056 7 0 0.0 0.0 0.00 0.00 0.00 72 1012.3
20260507044553 7 0 0.0 0.0 0.00 0.00 0.00 72 1012.4
20260507043050 7 0 0.0 0.0 0.00 0.00 0.00 71 1012.5
20260507041553 7 0 0.0 0.0 0.00 0.00 0.00 72 1012.4
20260507040056 7 0 0.0 0.0 0.00 0.00 0.00 72 1012.5
20260507034555 7 0 0.0 0.0 0.00 0.00 0.00 73 1012.5
20260507033055 7 0 0.0 0.0 0.00 0.00 0.00 72 1012.8
20260507031556 7 0 0.0 0.0 0.00 0.00 0.00 73 1012.7
20260507030055 7 0 0.0 0.0 0.00 0.00 0.00 73 1012.9
20260507024605 7 0 0.0 0.0 0.00 0.00 0.00 72 1012.9
20260507023054 7 0 0.0 0.0 0.00 0.00 0.00 72 1013.1
20260507021553 7 0 0.0 0.0 0.00 0.00 0.00 71 1013.2
20260507020108 7 0 0.0 0.0 0.00 0.00 0.00 70 1013.2
20260507014604 7 0 0.0 0.0 0.00 0.00 0.00 69 1013.4
20260507013056 7 0 0.0 0.0 0.00 0.00 0.00 68 1013.2
20260507011552 7 0 0.0 0.0 0.00 0.00 0.00 67 1013.2
20260507010056 8 0 0.0 0.0 0.00 0.00 0.00 67 1013.4
20260507004602 8 0 0.0 0.0 0.00 0.00 0.00 65 1013.3
20260507003053 8 0 0.0 0.0 0.00 0.00 0.00 65 1013.3
20260507001555 8 0 0.0 0.0 0.00 0.00 0.00 64 1013.2
20260507000051 8 0 0.0 0.0 0.00 0.00 0.00 64 1013.1
20260506234552 8 0 0.0 0.0 0.00 0.00 0.00 63 1013.3
20260506233108 8 0 0.0 0.0 0.00 0.00 0.00 62 1013.5
20260506231600 8 0 0.0 0.0 0.00 0.00 0.00 62 1013.3
20260506230056 8 0 0.0 0.0 0.00 0.00 0.00 62 1013.5
20260506224556 8 0 0.0 0.0 0.00 0.00 0.00 61 1013.8
20260506223052 8 0 0.0 1.6 0.00 0.00 0.00 61 1013.7
20260506221550 8 0 0.0 0.0 0.00 0.00 0.00 62 1013.8
20260506220049 8 0 0.0 0.0 0.00 0.00 0.00 63 1013.9
20260506214554 8 0 0.0 0.0 0.00 0.00 0.00 62 1014.0
20260506213110 9 0 0.0 0.0 0.00 0.00 0.00 62 1014.1
20260506211551 9 0 0.0 0.0 0.00 0.00 0.00 62 1014.0
20260506210048 9 0 0.0 0.0 0.00 0.00 0.00 62 1014.1
20260506204552 9 0 0.0 0.0 0.00 0.00 0.00 63 1014.1
20260506203052 9 0 0.0 0.0 0.00 0.00 0.00 63 1014.2
20260506201552 9 0 0.0 0.0 0.00 0.00 0.00 63 1014.3
20260506200051 9 0 0.0 0.0 0.00 0.00 0.00 63 1014.3
20260506194554 9 0 0.0 0.0 0.00 0.00 0.00 64 1014.3
20260506193058 9 0 0.0 0.0 0.00 0.00 0.00 66 1014.4
20260506191600 10 0 0.0 0.0 0.00 0.00 0.00 66 1014.5
20260506190058 10 0 0.0 0.0 0.00 0.00 0.00 64 1014.4
20260506184556 10 0 0.0 0.0 0.00 0.00 0.00 64 1014.4
20260506183058 10 0 0.0 0.0 0.00 0.00 0.00 63 1014.5
20260506181621 10 0 0.0 0.0 0.00 0.00 0.00 62 1014.4
20260506180058 10 0 0.0 0.0 0.00 0.00 0.00 61 1014.6
20260506174556 10 0 0.0 0.0 0.00 0.00 0.00 59 1014.7
20260506173113 11 0 0.0 0.0 0.00 0.00 0.00 59 1014.7
20260506171602 11 0 0.0 0.0 0.00 0.00 0.00 57 1014.7
20260506170052 11 0 0.0 0.0 0.00 0.00 0.00 57 1014.7
20260506164607 11 0 0.0 0.0 0.00 0.00 0.00 58 1015.0
20260506163052 11 0 0.0 0.0 0.00 0.00 0.00 59 1015.2
20260506161548 11 0 0.0 0.0 0.00 0.00 0.00 60 1015.3
20260506160054 11 0 0.0 0.0 0.00 0.00 0.00 65 1015.2
20260506154558 11 0 0.0 1.6 0.00 0.00 0.00 70 1015.6
20260506153110 11 0 0.0 0.0 0.00 0.00 0.00 67 1015.6
20260506151552 11 0 0.0 0.0 0.00 0.00 0.00 68 1015.7
20260506144557 11 0 0.0 0.0 0.00 0.00 0.00 64 1015.8
20260506143055 11 0 0.0 0.0 0.00 0.00 0.00 62 1015.8
20260506141551 12 0 0.0 0.0 0.00 0.00 0.00 58 1016.0
20260506140053 12 0 0.0 0.0 0.00 0.00 0.00 59 1016.1
20260506134553 12 0 0.0 0.0 0.00 0.00 0.00 59 1016.2
20260506133052 11 0 0.0 0.0 0.00 0.00 0.00 58 1016.4
20260506131555 11 0 0.0 0.0 0.00 0.00 0.00 61 1016.5
20260506130051 11 0 0.0 0.0 0.00 0.00 0.00 59 1016.6
20260506124601 11 0 0.0 0.0 0.00 0.00 0.00 57 1016.8
20260506123050 10 0 0.0 0.0 0.00 0.00 0.00 58 1016.8
20260506121551 11 0 0.0 0.0 0.00 0.00 0.00 61 1017.0
20260506120051 11 0 0.0 0.0 0.00 0.00 0.00 62 1017.2
20260506114553 10 0 0.0 0.0 0.00 0.00 0.00 62 1017.1
20260506113047 11 0 0.0 0.0 0.00 0.00 0.00 63 1017.1
20260506111551 11 0 0.0 0.0 0.00 0.00 0.00 65 1017.2